User: anonymous   Login
Location: Cossonay
(46.5833°N, 6.4167°E)
Time: 14:33:28
(UTC+00:00)
Language:

STARLINK-1257 - Orbit

View from above orbital plane
View from above orbital plane
View from above satellite
View from above satellite

Ground track
Ground track

The orbit data is extracted from the following two-line orbital elements,

1 45402C 20019AU  21020.14672186  .00451476  00000-0  30446-1 0   207
2 45402  52.9981 271.7731 0001551  70.9756  44.6529 15.05706406    10
Epoch (UTC): 20 January 2021 03:31:16
Eccentricity: 0.0001551
inclination: 52.9981°
perigee height: 548 km
apogee height: 550 km
right ascension of ascending node: 271.7731°
argument of perigee: 70.9756°
revolutions per day: 15.05706406
mean anomaly at epoch: 44.6529°
orbit number at epoch: 1

The dashed part of the orbit path shows where the satellite is in the earth's shadow,  

DLR